Home > Weather > Eastbourne > Past weeks

Flag for United Kingdom Past Weather in Eastbourne, England, United Kingdom — Yesterday and Last 2 Weeks

Now
63 °F

Mild.


Feels Like: 63 °F
Forecast: 52 / 62 °F
Wind: 6 mph from East

Location: Herstmonceux

Current Time: May 26, 2016 at 9:25:27 PM

Latest Report: May 26, 2016 at 8:00 PM


Visibility: 16 mi

Pressure: 29.98 "Hg

Humidity: 64%

Dew Point: 50 °F

Location of EastbourneLocation

Past Weather in Eastbourne — Graph

°F

Eastbourne Temperature Yesterday

Maximum temperature yesterday: 58 °F (at 4:00 PM)
Minimum temperature yesterday: 46 °F (at 11:00 PM)
Average temperature yesterday: 51 °F

High & Low Weather Summary for the Past Weeks

 TemperatureHumidityPressure
High72 °F (May 12, 4:00 PM)100% (May 20, 3:00 AM)30.22 "Hg (May 20, 3:00 AM)
Low38 °F (May 15, 6:00 AM)46% (May 23, 2:00 PM)29.53 "Hg (May 12, 5:00 AM)
Average55 °F80%29.93 "Hg
* Reported May 11 8:00 PM — May 26 8:00 PM, Eastbourne, Weather by CustomWeather, © 2016

Note: Actual official high and low records may vary slightly from our data, if they occured in-between our weather recording intervals... More about our weather records

Advertising

Eastbourne Weather History for the Previous 24 Hours

Scroll right to see more
 ConditionsComfort  
Time TempWeatherWind HumidityBarometerVisibility
8:00 PM
Thu, May 26
63 °FMild.6 mph64%29.98 "Hg16 mi
7:00 PM67 °FMild.6 mph50%29.96 "Hg22 mi
6:00 PM66 °FMild.5 mph52%29.97 "Hg14 mi
4:00 PM66 °FMild.6 mph53%29.98 "Hg16 mi
3:00 PM65 °FMild.6 mph57%29.99 "Hg16 mi
2:00 PM65 °FMild.7 mph62%30.00 "Hg22 mi
1:00 PM65 °FMild.6 mph64%30.00 "Hg15 mi
12:00 PM64 °FMild.5 mph63%30.00 "Hg16 mi
11:00 AM61 °FCool.5 mph67%30.01 "Hg11 mi
10:00 AM60 °FCool.5 mph70%30.01 "Hg14 mi
9:00 AM55 °FCool.5 mph83%30.02 "Hg12 mi
8:00 AM52 °FCool.5 mph96%30.02 "Hg7 mi
7:00 AM48 °FFog.3 mph100%30.02 "Hg3 mi
6:00 AM44 °FFog.2 mph100%30.01 "Hg2 mi
5:00 AM44 °FFog.2 mph100%30.01 "Hg2 mi
4:00 AM43 °FFog.2 mph98%30.01 "Hg2 mi
3:00 AM43 °FQuite cool.1 mph98%30.01 "Hg2 mi
2:00 AM44 °FFog.2 mph97%30.01 "Hg4 mi
1:00 AM45 °FFog.3 mph97%30.01 "Hg4 mi
12:00 AM46 °FFog.2 mph95%30.01 "Hg5 mi
11:00 PM
Wed, May 25
46 °FCool.3 mph94%30.01 "Hg7 mi
10:00 PM48 °FCool.3 mph89%30.02 "Hg11 mi
9:00 PM51 °FCool.2 mph81%30.01 "Hg25 mi
Weather by CustomWeather, © 2016

See weather overviewHow to use our weather pages